This is the latest recevied weather packets stored in our database for station/object WR9A-13. If no packets are shown the sender has not sent any weather packets the latest 10 day(s).
| Time | Temp. | Humidity | Pressure | Rain* | Wind** | Luminosity | Snow |
|---|---|---|---|---|---|---|---|
| 1787389832 | 18.89° C | 94% | 1013.8 hPa | 0 mm | - | - | - |
| 1787389520 | 18.89° C | 94% | 1013.8 hPa | 0 mm | - | - | - |
| 1787389231 | 18.89° C | 94% | 1013.8 hPa | 0 mm | - | - | - |
| 1787388928 | 19.44° C | 94% | 1013.8 hPa | 0 mm | - | - | - |
| 1787388616 | 19.44° C | 94% | 1013.7 hPa | 0 mm | - | - | - |
| 1787388332 | 19.44° C | 94% | 1013.8 hPa | 0 mm | - | - | - |
| 1787388021 | 19.44° C | 94% | 1013.9 hPa | 0 mm | - | - | - |
| 1787387717 | 19.44° C | 93% | 1014 hPa | 0 mm | - | - | - |
| 1787387424 | 19.44° C | 93% | 1014.1 hPa | 0 mm | - | - | - |
| 1787387122 | 18.89° C | 93% | 1014.1 hPa | 0 mm | - | - | - |
| 1787386825 | 19.44° C | 92% | 1014.1 hPa | 0 mm | - | - | - |
| 1787386522 | 19.44° C | 91% | 1014.3 hPa | 0 mm | - | - | - |
| 1787386241 | 19.44° C | 90% | 1014.3 hPa | 0 mm | - | - | - |
| 1787385928 | 19.44° C | 88% | 1014.5 hPa | 0 mm | - | - | - |
| 1787385622 | 20° C | 84% | 1014.8 hPa | 0 mm | - | - | - |
| 1787385329 | 21.11° C | 89% | 1015.5 hPa | 0 mm | - | - | - |
| 1787385026 | 21.11° C | 87% | 1014.4 hPa | 0 mm | - | - | - |
| 1787384713 | 21.11° C | 88% | 1014.2 hPa | 0 mm | - | - | - |
| 1787384429 | 21.11° C | 88% | 1014.2 hPa | 0 mm | - | - | - |
| 1787384118 | 20.56° C | 88% | 1014.3 hPa | 0 mm | - | - | - |
| 1787383835 | 20.56° C | 88% | 1014.3 hPa | 0 mm | - | - | - |
| 1787383522 | 20.56° C | 87% | 1014.3 hPa | 0 mm | - | - | - |
| 1787383221 | 20.56° C | 87% | 1014.3 hPa | 0 mm | - | - | - |
| 1787382928 | 20.56° C | 87% | 1014.2 hPa | 0 mm | - | - | - |
| 1787382625 | 20.56° C | 88% | 1014.1 hPa | 0 mm | - | - | - |
* Rain latest hour (hover to see other rain measurements)
** Current wind speed in m/s (hover to see current wind gust speed)